DMSP 5D-2 F13 DEB, 40418

Orbit data source: Space-Track

DMSP 5D-2 F13 DEB, 40418 is space debris in SSO originally from a launch on Fri, 24 Mar 1995 UTC launched from the Air Force Western Test Range (AFWTR). Debris objects in space refer to the collection of defunct objects orbiting the Earth. Examples of debris include non-operational satellites, rocket bodies, and fragments generated from explosions, collisions, or faulty payload assembly.

Loading next visibility...
Identifier
40418, 1995-015AF
Orbit
SSO
Last TLE update
9 hours ago
Origin
Manufacturer
Unknown
Mission
Spacecraft
Bus & Motor
Unknown
Mass
Unknown
Launch date (UTC)
1995-03-24 (30 years ago)
Launch vehicle
Unknown
Launch site
Air Force Western Test Range (AFWTR)
Object type
Payload
Rocket body
Debris
Shape & HBR
Unknown
Radar Cross Section
Small (<0.1 m²)

Expand to show TLE details & history

TLE from 9 hours ago
0 DMSP 5D-2 F13 DEB
1 40418U 95015AF  25128.86076497  .00003309  00000-0  12749-2 0  9992
2 40418  98.6771 153.9113 0009651  87.7205 272.5082 14.30948392529364
Epoch: 2025-05-08T20:39Z
Definitive object data (Epoch: 2025-05-08T20:39:30.093Z)
Latitude
-0.00008°
Longitude
-22.88927°
Altitude
791.197 km
Speed
7.458 km/s
True Right ascension
10h 15m 38s
True Declination
0° 00' 00"
Sunlit
Object was in daylight at TLE epoch
Visualization TLE readout
Latitude
41.06928°
Longitude
165.08788°
Altitude
790.181 km
Speed
7.465 km/s
Apparent Right ascension
00h 14m 07s
Apparent Declination
3° 42' 42"
Sunlit
Object is in daylight
Visualization observer readout
Local Sidereal Time
13:50:17
Azimuth
32.653° NE
Elevation
-41.105°
Doppler factor
1
Orbital elements
Apogee altitude
792.619 km
Perigee altitude
778.791 km
Semi-major axis
7,163.842 km
Eccentricity
0.0009651
Inclination
98.6771°
RAAN
153.9113°
Arg. of periapsis
87.7205°
True anomaly
272.39771°
Mean anomaly
272.5082°
Eccentric anomaly
272.45295°
Mean motion
3.57951 °/min
BSTAR
0.0012749
Orbital period
100.57 mins
Loading maneuver chart data...
Loading SW <> Apogee altitude chart data...

DMSP 5D-2 F13 DEB Visibility forecast

Observer location: undefined°, undefined°

Span
Click to sort rows by Start time (UTC) header in descending order
Start Az.
Max El. time (UTC)
Max El. Az.
Max El.
End time (UTC)
End Az.
8 mins2025-05-09 14:01:34.996Z30.427° NE2025-05-09 14:05:34.996Z95.72° ESE34.992°2025-05-09 14:09:34.996Z166.917° S
6 mins2025-05-09 15:42:34.996Z328.842° NNW2025-05-09 15:44:34.996Z299.174° NW20.577°2025-05-09 15:48:34.996Z246.919° WSW
8 mins2025-05-10 01:19:34.996Z147.732° SSE2025-05-10 01:22:34.996Z83.526° E41.735°2025-05-10 01:27:34.996Z353.572° N
|